Location: Newark
(0.5300°S, 127.4800°E)
Time: 20:57:47
(UTC+00:00)

A-11 Canister half - Pass Details

Date: 19 September 2019
Orbit: 1514 x 1686 km, 47.2° (Epoch: 18 October)

Event Time Altitude Azimuth Distance (km) Brightness Sun altitude
Rises 20:49:24 0° 197° (SSW) 4,889 11.4 -8.6°
Reaches altitude 10° 20:53:26 10° 184° (S) 3,876 11.1 -7.6°
Maximum altitude 21:01:02 25° 133° (SE) 2,820 11.0 -5.7°
Drops below altitude 10° 21:08:24 10° 82° (E) 3,762 13.0 -3.9°
Sets 21:12:10 0° 69° (ENE) 4,718 13.2 -2.9°
